Hourly Data Report for August 31, 2019

All times are specified in Local Standard Time (LST). Add 1 hour to adjust for Daylight Saving Time where and when it is observed.

VICTORIA BEACH (AUT)
MANITOBA
Current Station Operator: ECCC - MSC

50°42'00.000" N
96°34'00.000" W
220.10 m
5032951
71552
WII

Download Data

Hourly Data (August 2019)
Hourly Data Report for August 31, 2019
TIME Temp Definition
°C
Dew Point Definition
°C
Rel Hum Definition
%
Wind Dir Definition
10's deg

Wind Spd Definition
km/h
Visibility Definition
km
Stn Press Definition
kPa
Hmdx Definition


Wind Chill Definition


Weather Definition


00:00 15.0 14.8 98 11 6   99.66     LegendNANA
01:00 14.9 13.9 94 11 5   99.66     LegendNANA
02:00 14.9 11.7 81 11 4   99.70     LegendNANA
03:00 16.4 LegendMM LegendMM 13 4   99.69     LegendNANA
04:00 16.8 LegendMM LegendMM 10 4   99.71     LegendNANA
05:00 18.7 LegendMM LegendMM 22 15   99.72     LegendNANA
06:00 18.4 LegendMM LegendMM 18 7   99.71     LegendNANA
07:00 20.2 LegendMM LegendMM 23 32   99.68     LegendNANA
08:00 18.8 LegendMM LegendMM 22 29   99.70     LegendNANA
09:00 17.8 LegendMM LegendMM 21 22   99.69     LegendNANA
10:00 17.2 LegendMM LegendMM 18 19   99.68     LegendNANA
11:00
12:00 18.7 LegendMM LegendMM 14 14   99.61     LegendNANA
13:00 18.1 17.5 96 13 16   99.57     LegendNANA
14:00 19.9 LegendMM LegendMM 16 20   99.51     LegendNANA
15:00 17.2 LegendMM LegendMM 14 20   99.43     LegendNANA
16:00 17.7 LegendMM LegendMM 14 15   99.39     LegendNANA
17:00 18.6 LegendMM LegendMM 13 15   99.30     LegendNANA
18:00 17.5 16.2 92 12 13   99.24     LegendNANA
19:00 18.1 LegendMM LegendMM 10 9   99.17     LegendNANA
20:00 18.0 LegendMM LegendMM 14 19   99.11     LegendNANA
21:00 17.8 LegendMM LegendMM 15 16   99.08     LegendNANA
22:00 17.6 LegendMM LegendMM 15 15   99.07     LegendNANA
23:00 17.9 LegendMM LegendMM 21 10   99.07     LegendNANA

Notes on Data Quality.

Legend

  • E = Estimated
  • M = Missing
  • NA = Not Available
Date modified: